Location: Newark
(15.4608°S, 41.1635°W)
Time: 16:59:56
(UTC+00:00)

Tiros 1 despin weight - All Passes

Search period start: 26 February 2021 00:00
Search period end: 08 March 2021 00:00
Orbit: 593 x 642 km, 48.2° (Epoch: 25 February)

Date Brightness Start Highest point End Pass type
(mag) Time Alt. Az. Time Alt. Az. Time Alt. Az.
26 Feb - 00:13:55 10° SW 00:18:23 81° SE 00:22:52 10° NE visible
26 Feb - 14:10:10 10° NW 14:14:43 69° SW 14:19:13 10° SE daylight
26 Feb - 22:49:58 10° S 22:53:09 19° SE 22:56:21 10° E visible
27 Feb - 00:30:33 10° WSW 00:34:39 37° NW 00:38:47 10° NNE visible
27 Feb - 12:45:56 10° N 12:49:43 25° NE 12:53:28 10° ESE daylight
27 Feb - 14:27:13 10° WNW 14:31:07 27° SW 14:34:59 10° SSE daylight
27 Feb - 23:05:21 10° SSW 23:09:37 45° SE 23:13:53 10° ENE visible
28 Feb - 00:48:30 10° W 00:50:53 14° NW 00:53:15 10° NNW night (unlit)
28 Feb - 13:01:24 10° NNW 13:05:57 67° NE 13:10:29 10° SE daylight
28 Feb - 14:45:50 10° WSW 14:47:41 12° SW 14:49:31 10° SSW daylight
28 Feb - 21:42:39 10° SSE 21:44:14 12° SE 21:45:48 10° ESE visible
28 Feb - 23:21:32 10° SW 23:25:57 67° NW 23:30:22 10° NNE visible
01 Mar - 11:38:25 10° NNE 11:41:00 15° NE 11:43:34 10° E daylight
01 Mar - 13:17:52 10° WNW 13:22:17 46° SW 13:26:40 10° SSE daylight
01 Mar - 21:57:03 10° SSW 22:00:49 26° SE 22:04:34 10° ENE visible
01 Mar - 23:38:34 10° WSW 23:42:11 25° NW 23:45:49 10° N visible
02 Mar - 11:52:58 10° NNW 11:57:14 37° NE 12:01:28 10° ESE daylight
02 Mar - 13:35:23 10° W 13:38:45 20° SW 13:42:05 10° S daylight
02 Mar - 22:12:48 10° SW 22:17:12 68° SE 22:21:37 10° NE visible
03 Mar - 12:08:53 10° NW 12:13:30 82° SW 12:18:05 10° SE daylight
03 Mar - 20:49:07 10° S 20:51:56 16° SE 20:54:44 10° E daylight
03 Mar - 22:29:17 10° WSW 22:33:30 43° NW 22:37:42 10° NNE visible
04 Mar - 10:44:57 10° N 10:48:30 22° NE 10:52:03 10° ESE daylight
04 Mar - 12:25:44 10° WNW 12:29:52 32° SW 12:33:59 10° SSE daylight
04 Mar - 21:04:18 10° SSW 21:08:26 38° SE 21:12:32 10° ENE daylight
04 Mar - 22:46:52 10° W 22:49:42 17° NW 22:52:33 10° NNW visible
05 Mar - 11:00:12 10° NNW 11:04:44 56° NE 11:09:16 10° SE daylight
05 Mar - 12:43:52 10° WSW 12:46:24 14° SW 12:48:56 10° S daylight
05 Mar - 21:20:21 10° SW 21:24:47 80° NW 21:29:11 10° NE visible
06 Mar - 09:37:48 10° NNE 09:39:48 13° NE 09:41:46 10° ENE daylight
06 Mar - 11:16:30 10° NW 11:21:03 55° SW 11:25:34 10° SSE daylight
06 Mar - 19:56:05 10° S 19:59:36 23° SE 20:03:06 10° E daylight
06 Mar - 21:37:11 10° WSW 21:41:01 29° NW 21:44:51 10° N visible
07 Mar - 09:51:52 10° NNW 09:56:00 32° NE 10:00:07 10° ESE daylight
07 Mar - 11:33:46 10° W 11:37:28 23° SW 11:41:10 10° S daylight
07 Mar - 20:11:40 10° SSW 20:16:02 56° SE 20:20:20 10° NE daylight
07 Mar - 21:56:02 10° WNW 21:57:13 11° NW 21:58:25 10° NW visible
